Regional Weather Roundup
Issued by NWS

Home | Current Version | Previous Version | Text Only | Print | Product List | Glossary Off
Versions: 1 2 3 4 5 6 7 8 9 10 11 12 13 14 15 16 17 18 19 20 21 22 23 24 25 26 27 28 29 30 31 32 33 34 35 36 37 38 39 40 41 42 43 44 45 46 47 48 49 50

091
ASUS45 KABQ 250310
RWRNM
NEW MEXICO REGIONAL WEATHER ROUNDUP
NATIONAL WEATHER SERVICE ALBUQUERQUE NM
800 PM MST FRI FEB 24 2017

NOTE: "FAIR" MEANS FEW OR NO CLOUDS BELOW 12,000 FEET AGL WITH NO
       SIGNIFICANT WEATHER OR OBSTRUCTIONS TO VISION.

      THIS PRODUCT IS RELEASED AS TWO VERSIONS.  ONE VERSION NEAR
      THE TOP OF THE HOUR CONTAINING PRELIMINARY DATA FROM ALBUQUERQUE
      AND OTHER STATIONS.  A FINAL VERSION WITH ADDITIONAL DATA IS
      ISSUED ABOUT 10 MINUTES AFTER THE HOUR.

NMZ501-503-504-510>518-250400-
NORTHWEST PLATEAU/NORTHCENTRAL MOUNTAINS

CITY           SKY/WX    TMP DP  RH WIND       PRES   REMARKS
FARMINGTON     FAIR      28   2  32 W3        30.03R
LOS ALAMOS     FAIR      29  -2  26 W7        30.00R WCI  22
SANTA FE       FAIR      30  -6  21 CALM      29.99R
TAOS           FAIR      19  -4  35 NW6       29.98R WCI  11
ANGEL FIRE     FAIR      20   2  46 SW9       29.95R WCI   9

$$
NMZ402-403-502-505>509-250400-
WESTCENTRAL MOUNTAINS/SOUTHWEST MOUNTAINS

CITY           SKY/WX    TMP DP  RH WIND       PRES   REMARKS
GALLUP         FAIR      30   1  29 W9        30.03R WCI  22
GRANTS         FAIR      25   0  33 NW15      30.04R WCI  13
SILVER CITY    FAIR      39   9  29 NW10      30.08R WCI  32

$$
NMZ407-409-411-412-250400-
SOUTHERN DESERTS

CITY           SKY/WX    TMP DP  RH WIND       PRES   REMARKS
DEMING         FAIR      47  12  24 NW12      30.06R
LAS CRUCES     FAIR      46   8  22 W9        30.05R
HOLLOMAN AFB   FAIR      51   6  16 SW18      30.03R
ALAMOGORDO     FAIR      46   9  21 SE10      30.02R
T OR C         FAIR      49   5  16 W14       29.98R

$$
NMZ519>523-250400-
CENTRAL VALLEYS/CENTRAL HIGHLANDS

CITY           SKY/WX    TMP DP  RH WIND       PRES   REMARKS
ALBUQUERQUE    FAIR      39   0  19 NW12      30.03R WCI  32
DOUBLE EAGLE   CLEAR     34  -2  21 W7        30.03R WCI  28
MORIARTY ARPT  FAIR      31   0  26 NW8       30.02R WCI  23
CLINES CORNERS FAIR      24  -2  32 W12       30.00R WCI  13
BELEN          FAIR      36  -2  19 NW7       30.03R WCI  31
SOCORRO        FAIR      46   1  15 NW13G21   29.99R

$$
NMZ524>526-539-540-250400-
SOUTHCENTRAL MOUNTAINS

CITY           SKY/WX    TMP DP  RH WIND       PRES   REMARKS
RUIDOSO        FAIR      36   0  21 W14       30.03R WCI  27

$$
NMZ527>531-250400-
NORTHEAST HIGHLANDS/NORTHEAST PLAINS

CITY           SKY/WX    TMP DP  RH WIND       PRES   REMARKS
LAS VEGAS      FAIR      28 -10  18 CALM      29.97R
RATON          FAIR      21   8  57 NE7       29.96R WCI  12
CLAYTON        FAIR      21  11  65 NE7       30.03R WCI  12

$$
NMZ532>537-250400-
EASTCENTRAL PLAINS

CITY           SKY/WX    TMP DP  RH WIND       PRES   REMARKS
TUCUMCARI      FAIR      35  13  40 NE13      30.01R WCI  26
CANNON AFB     FAIR      39   2  21 NW7       29.99R WCI  34
CLOVIS AIRPORT FAIR      36  16  44 NE12      30.00R WCI  27

$$
NMZ028-029-538-250400-
SOUTHEAST PLAINS

CITY           SKY/WX    TMP DP  RH WIND       PRES   REMARKS
ROSWELL        FAIR      51   4  14 N6          N/A
ARTESIA        FAIR      50   7  17 SW13      29.96R
CARLSBAD       FAIR      55   1  11 W14       29.95R
HOBBS          FAIR      46   7  19 CALM      29.99R


$$




USA.gov is the U.S. government's official web portal to all federal, state and local government web resources and services.